Overview Statistics Trail Chart Weather Telemetry Raw packets
 

This is the latest recevied weather packets stored in our database for station/object N5ATR. If no packets are shown the sender has not sent any weather packets the latest 10 day(s).

<< 38 39 40 41 42 43 44 >>
Time Temp. Humidity Pressure Rain* Wind** Luminosity Snow
1788432512 19.44° C 50% 1021.4 hPa 0 mm - 0 W/m² -
1788432207 19.44° C 49% 1021.5 hPa 0 mm - 0 W/m² -
1788431904 19.44° C 49% 1021.5 hPa 0 mm - 0 W/m² -
1788431600 20° C 48% 1021.7 hPa 0 mm - 0 W/m² -
1788431296 20° C 48% 1021.5 hPa 0 mm - 0 W/m² -
1788430995 20° C 47% 1021.5 hPa 0 mm - 0 W/m² -
1788430694 20° C 47% 1021.5 hPa 0 mm - 0 W/m² -
1788430390 20° C 46% 1021.5 hPa 0 mm - 0 W/m² -
1788430086 20° C 46% 1021.7 hPa 0 mm - 0 W/m² -
1788429786 20° C 46% 1021.8 hPa 0 mm - 0 W/m² -
1788429483 20° C 45% 1021.4 hPa 0 mm - 0 W/m² -
1788429177 20° C 45% 1021.5 hPa 0 mm - 0 W/m² -
1788428873 20° C 44% 1021.7 hPa 0 mm - 0 W/m² -
1788428567 20° C 44% 1021.5 hPa 0 mm - 0 W/m² -
1788428263 20° C 44% 1021.5 hPa 0 mm - 0 W/m² -
1788427958 18.89° C 44% 1021.4 hPa 0 mm - 0 W/m² -
1788427658 15.56° C 49% 1021.5 hPa 0 mm - 0 W/m² -
1788427353 15.56° C 47% 1021.4 hPa 0 mm - 0 W/m² -
1788427052 15.56° C 47% 1021.7 hPa 0 mm - 0 W/m² -
1788426746 16.11° C 48% 1021.4 hPa 0 mm - 0 W/m² -
1788426442 16.67° C 46% 1021.4 hPa 0 mm - 0 W/m² -
1788426140 16.11° C 46% 1021.3 hPa 0 mm - 0 W/m² -
1788425839 15° C 47% 1021.4 hPa 0 mm - 0 W/m² -
1788425535 15.56° C 47% 1021.4 hPa 0 mm - 0 W/m² -
1788425232 15.56° C 47% 1021.5 hPa 0 mm - 0 W/m² -

* Rain latest hour (hover to see other rain measurements)
** Current wind speed in m/s (hover to see current wind gust speed)